Temperature
16 16 16 16 16 16 16 16 15 15 15 16 16 16 16 16 16 16 16 16 16 16 15 15 15 15 15 15 15 15 15 15 15 15 14 14 14 14
16 16 16 16 16 16 16 16 15 15 15 15 15 15 15 15 15 15 16 16 15 15 15 15 15 15 15 15 15 15 15 15 15 15 14 14 14 14
16 16 16 16 16 16 16 15 15 15 15 15 15 15 15 15 15 15 15 15 15 15 15 15 15 15 15 15 15 15 15 15 14 14 14 14 14 14
16 16 16 16 16 15 15 15 15 15 15 15 15 15 15 15 15 15 15 15 15 15 15 15 15 15 15 15 15 15 15 14 14 14 14 14 14 14
16 16 15 15 15 15 15 15 15 15 15 15 15 15 15 15 15 15 15 15 15 15 15 15 15 15 15 15 15 15 15 14 14 14 14 14 14 14
15 15 15 15 15 15 15 15 15 15 14 14 14 14 14 14 14 14 14 14 14 14 14 14 14 14 14 14 15 14 14 14 14 14 14 14 14 14
15 15 15 15 15 14 14 14 14 14 14 14 14 14 14 14 14 14 14 14 14 14 14 14 14 14 14 14 14 14 14 14 14 14 14 14 14 14
15 15 14 14 14 14 14 14 14 14 14 13 13 13 13 13 14 14 13 13 13 14 14 14 14 14 14 14 14 14 14 14 14 14 14 14 13 13
14 14 14 14 14 14 14 14 14 13 13 13 13 13 13 13 13 13 13 13 13 13 13 13 13 13 13 13 13 13 13 13 13 13 13 13 13 13
14 13 13 13 13 13 13 13 13 13 13 13 13 13 13 13 13 13 13 13 13 13 13 13 13 13 13 13 13 13 13 13 13 13 13 13 13 13
13 13 13 13 13 13 13 13 13 13 13 13 13 13 12 12 12 12 12 12 12 12 12 12 12 12 13 13 13 13 13 13 12 12 12 12 12 12
13 13 13 13 13 13 13 13 13 13 13 13 13 12 12 12 12 12 12 12 11 11 12 12 12 12 12 12 12 12 12 12 12 12 12 12 12 12
13 12 12 12 12 12 12 12 12 12 12 12 12 12 12 12 12 12 11 11 11 11 11 11 11 11 11 11 11 11 11 11 11 12 12 12 11 11
12 12 12 12 12 12 11 11 11 11 11 11 11 11 11 11 11 11 11 11 11 11 11 11 11 11 11 11 11 11 11 11 11 11 11 11 11 11
11 11 11 11 11 11 11 11 11 11 11 11 11 11 11 11 11 11 11 11 11 11 11 11 11 11 10 10 10 10 10 10 10 10 10 10 10 10
11 11 11 10 11 11 11 11 11 10 10 10 10 10 10 10 10 10 10 10 10 10 10 10 10 10 10 10 10 10 10 10 10 10 10 10 10 10
11 11 10 10 10 10 10 10 10 10 10 10 10 10 10 10 10 10 10 10 10 10 10 10 10 10 10 9 9 9 9 9 9 9 9 9 9 9
10 10 10 10 10 10 9 9 9 9 9 9 9 9 9 9 9 9 9 9 9 9 9 9 9 9 9 9 9 9 9 9 9 9 9 9 9 9
10 10 10 9 9 9 9 9 9 9 9 9 9 8 8 8 8 8 8 8 8 8 8 8 8 8 8 8 8 8 8 8 8 8 8 8 8 8
9 9 9 9 9 9 9 8 8 8 8 8 8 8 8 8 8 8 8 8 8 8 8 8 7 7 7 7 7 7 8 8 8 8 8 8 8 8
9 9 9 9 8 8 8 8 8 8 8 8 8 7 7 7 7 7 7 7 7 7 7 7 7 7 7 7 7 7 7 7 7 7 7 7 7 7
9 9 8 8 8 8 8 8 8 8 7 7 7 7 7 7 7 7 7 7 7 7 6 6 7 7 7 6 6 6 6 6 6 6 6 6 6 6
9 8 8 8 8 8 8 7 7 7 7 7 7 7 7 6 6 6 6 6 6 6 6 6 6 6 6 6 6 6 6 6 6 6 6 6 6 6
Wind_Speed
1 1 1 1 2 2 3 3 3 2 3 2 1 2 3 3 5 4 5 6 7 7 7 7 7 8 9 10 11 11 11 12 12 12 12 11 11 11
1 1 1 1 1 1 2 2 3 3 3 2 2 3 3 4 5 4 5 6 7 7 7 8 8 8 9 10 11 12 12 13 13 13 13 12 12 11
1 1 1 1 1 1 1 2 2 2 4 3 2 3 3 4 4 4 4 5 5 7 8 9 9 9 10 10 10 11 12 13 13 14 14 13 13 12
0 0 1 1 1 1 1 2 2 3 3 4 3 3 4 4 4 4 4 5 5 7 8 9 9 9 9 9 9 9 10 12 13 14 14 14 13 13
1 1 2 1 2 2 2 2 2 2 2 3 4 3 3 3 3 3 3 3 4 6 7 8 8 9 9 9 9 10 10 10 11 13 14 14 14 14
1 1 2 2 3 3 2 2 2 2 2 3 3 3 3 2 2 2 3 3 4 4 4 5 6 7 7 7 8 9 9 10 10 10 12 13 14 14
1 1 2 2 2 2 2 2 2 2 2 2 3 3 3 2 2 2 4 4 4 3 3 3 3 4 5 6 7 8 9 9 10 11 11 12 13 13
1 2 2 2 2 2 2 3 3 3 4 3 3 4 4 4 3 3 3 3 3 2 2 4 3 4 5 6 7 9 10 10 11 10 10 10 11 12
1 2 2 2 2 2 2 2 3 4 4 4 5 5 5 5 3 3 3 4 5 3 2 4 3 4 5 6 8 9 9 10 10 10 10 10 10 11
2 2 2 2 2 1 1 2 2 3 3 4 5 6 5 4 4 4 4 3 3 2 2 3 3 4 5 5 7 8 9 9 9 10 10 10 10 10
2 2 1 2 3 2 1 2 3 4 3 3 3 4 5 4 3 1 1 1 3 3 1 2 3 4 4 4 5 6 7 7 8 9 9 8 9 8
2 2 2 2 3 2 1 2 3 5 4 3 3 3 3 3 2 3 3 2 2 2 1 2 2 2 3 3 4 4 4 5 7 8 8 7 7 6
1 2 2 3 3 3 1 1 3 3 2 2 3 3 3 2 2 3 3 3 4 3 2 2 2 2 2 3 3 3 3 3 3 4 6 7 7 7
2 2 2 3 2 2 2 3 2 1 1 2 2 3 3 3 3 4 4 4 5 5 4 3 3 3 3 4 4 3 3 3 2 2 3 4 5 7
2 2 2 2 2 2 2 2 1 1 1 2 2 3 3 4 4 4 4 3 4 4 4 4 4 3 4 4 5 4 4 3 3 3 3 3 3 3
2 2 2 2 2 3 3 2 1 1 1 1 2 3 3 3 3 3 3 3 3 4 4 4 4 4 4 5 5 5 4 3 3 3 3 3 3 4
0 1 2 2 3 3 3 2 2 2 1 2 2 3 3 3 3 3 3 3 3 4 5 4 4 3 4 4 4 5 4 4 4 3 3 3 4 4
2 1 1 1 1 1 2 2 2 2 2 2 2 2 3 3 4 3 3 2 3 4 4 4 4 3 2 3 4 5 4 4 4 3 3 4 4 4
2 0 0 1 1 1 1 1 2 2 2 2 2 3 3 3 3 4 3 3 4 4 5 4 3 2 4 6 4 4 4 4 4 3 3 4 5 5
0 1 1 1 1 1 1 2 2 2 2 2 2 2 3 3 3 3 4 4 4 4 5 4 4 4 5 6 5 5 5 4 4 4 4 3 4 4
2 2 2 2 1 1 1 1 2 2 2 2 3 3 3 3 3 3 3 4 4 4 5 6 6 6 4 3 3 4 3 4 4 4 3 3 3 3
3 3 3 2 2 2 2 2 2 2 2 3 3 3 3 3 3 4 4 4 4 4 5 5 5 3 2 2 3 4 4 4 4 3 3 4 3 3
3 3 3 3 3 2 2 2 2 2 2 3 3 3 3 3 3 3 4 4 4 4 4 4 4 3 3 2 3 3 4 4 3 3 3 3 2 3
Wind_Direction
211 211 219 238 219 210 197 192 200 252 274 259 258 269 273 274 276 264 255 254 247 247 247 251 254 254 252 248 241 235 232 228 226 221 220 221 224 228
222 210 233 242 230 208 202 207 209 220 252 258 260 278 277 283 283 271 261 255 250 250 252 254 253 255 257 251 242 238 233 229 224 218 218 219 222 224
303 247 257 240 221 224 216 218 221 221 250 275 263 279 265 270 285 276 271 262 262 258 257 255 253 254 256 253 247 242 234 229 224 221 220 220 221 223
303 280 278 261 251 248 229 230 232 227 232 268 282 279 267 268 272 276 279 271 270 270 264 261 256 256 256 252 247 244 238 233 230 226 223 222 223 224
232 229 256 236 255 258 242 236 238 233 230 246 273 273 276 288 282 281 282 279 281 278 267 259 254 253 255 254 250 246 241 238 234 229 226 226 225 226
277 252 252 235 238 241 245 234 227 229 233 241 265 277 277 287 272 278 287 276 277 288 276 267 262 255 257 257 252 248 243 239 236 235 232 228 226 226
316 283 261 249 241 237 242 226 210 226 234 245 262 275 271 281 272 264 269 282 271 262 278 281 277 268 267 264 257 254 247 243 239 237 235 231 227 226
292 308 295 291 283 266 255 235 214 225 236 247 256 263 270 262 261 258 265 279 281 260 261 279 271 266 269 265 264 255 251 247 243 239 236 232 228 226
276 295 305 313 310 277 275 271 265 252 235 238 250 258 265 262 253 255 252 260 268 275 261 277 266 266 273 271 259 251 250 248 246 241 237 233 230 230
289 283 282 300 307 293 275 285 283 284 261 248 255 265 267 265 246 244 249 266 285 277 241 265 277 276 282 278 261 245 245 247 245 240 235 229 229 230
316 323 309 297 315 318 283 287 299 302 296 276 273 283 290 286 260 238 250 282 295 293 255 258 282 292 287 277 273 253 245 248 246 237 230 224 223 221
337 336 339 340 330 339 263 268 286 295 312 329 331 325 318 313 287 244 231 243 274 279 264 248 277 294 297 291 293 283 264 251 239 233 228 221 213 212
316 317 324 347 348 345 353 317 285 295 321 338 337 333 334 323 303 283 251 231 241 254 257 232 264 269 263 287 298 293 279 270 255 244 226 220 210 203
277 294 308 325 341 349 345 327 327 356 6 357 351 339 329 321 313 303 286 263 252 257 262 238 250 247 256 273 285 294 297 285 266 258 251 222 216 216
276 294 315 330 338 342 353 5 27 36 25 352 327 316 309 308 319 324 321 302 292 282 276 259 258 259 251 260 273 279 290 292 276 261 255 244 240 230
326 342 357 13 16 360 2 7 8 2 341 311 309 318 330 332 334 332 328 333 326 316 310 296 266 258 265 269 268 274 276 271 282 276 265 262 256 236
349 27 25 16 4 360 1 0 355 359 347 334 329 329 331 332 331 335 325 321 313 310 317 325 315 273 255 262 268 272 276 280 278 272 258 264 263 257
105 59 11 351 337 340 348 351 351 338 325 319 316 312 313 316 322 331 326 316 305 301 302 310 321 319 301 279 243 263 279 283 286 276 261 259 270 267
100 121 270 267 280 284 296 303 311 320 333 332 325 319 317 320 325 328 328 323 315 310 306 303 299 288 292 295 291 244 262 278 281 279 268 259 264 270
123 231 246 262 282 293 298 307 307 316 324 318 312 314 316 319 323 324 321 315 309 307 308 307 296 282 273 281 286 293 268 256 264 266 268 266 273 277
238 247 251 250 256 266 286 302 311 313 315 311 310 313 313 313 309 307 306 305 304 308 308 304 298 290 281 281 290 299 302 287 263 259 256 254 269 280
238 243 250 251 248 254 262 272 290 307 317 314 311 310 308 305 303 305 305 306 305 303 303 307 317 320 305 284 296 305 314 323 319 307 277 250 250 253
242 245 250 250 247 248 247 253 269 286 293 300 309 312 311 307 303 302 303 301 300 304 310 318 330 333 324 310 304 306 312 321 329 335 328 325 273 246
Height
1528 1528 1528 1528 1529 1529 1529 1529 1530 1528 1527 1528 1529 1529 1529 1529 1528 1528 1528 1528 1528 1529 1529 1529 1529 1529 1529 1529 1530 1530 1531 1532 1533 1534 1534 1535 1536 1537
1526 1525 1525 1526 1526 1526 1526 1526 1527 1527 1525 1524 1525 1526 1525 1525 1525 1525 1524 1524 1524 1525 1525 1525 1525 1525 1525 1525 1525 1526 1527 1528 1529 1530 1530 1531 1532 1533
1523 1523 1523 1523 1523 1523 1523 1523 1524 1524 1522 1522 1522 1522 1522 1521 1521 1521 1520 1520 1520 1520 1520 1520 1521 1521 1521 1521 1521 1522 1522 1523 1524 1525 1526 1527 1528 1529
1521 1521 1521 1521 1521 1521 1521 1520 1521 1521 1520 1518 1518 1518 1518 1518 1517 1517 1517 1516 1516 1516 1516 1516 1516 1516 1517 1517 1517 1517 1518 1519 1520 1521 1522 1522 1523 1525
1518 1518 1518 1518 1518 1518 1518 1517 1517 1517 1517 1516 1515 1514 1514 1514 1513 1513 1512 1512 1512 1512 1512 1512 1512 1512 1512 1513 1512 1512 1513 1514 1515 1516 1517 1518 1519 1520
1516 1516 1516 1515 1515 1515 1515 1514 1514 1514 1514 1513 1512 1511 1510 1510 1509 1509 1508 1508 1508 1509 1508 1508 1508 1508 1508 1508 1508 1508 1509 1509 1510 1511 1512 1513 1514 1515
1513 1513 1513 1513 1512 1512 1512 1512 1511 1511 1510 1509 1508 1507 1506 1506 1505 1505 1505 1505 1504 1505 1504 1504 1504 1504 1504 1504 1504 1504 1504 1505 1505 1506 1507 1508 1508 1509
1510 1510 1510 1510 1509 1509 1509 1509 1509 1508 1507 1506 1505 1504 1503 1502 1502 1501 1501 1501 1500 1501 1501 1500 1500 1500 1500 1499 1499 1499 1499 1500 1500 1501 1502 1502 1503 1504
1507 1507 1506 1506 1506 1506 1506 1506 1505 1504 1504 1503 1502 1501 1500 1499 1499 1498 1498 1497 1497 1497 1497 1495 1496 1495 1496 1495 1495 1495 1495 1495 1495 1496 1496 1497 1498 1499
1505 1504 1504 1503 1503 1503 1502 1502 1501 1500 1500 1499 1498 1498 1497 1497 1496 1495 1494 1494 1493 1493 1493 1492 1491 1491 1491 1491 1490 1491 1491 1491 1491 1491 1491 1492 1493 1493
1502 1501 1501 1500 1500 1500 1499 1498 1497 1497 1496 1496 1495 1494 1493 1493 1492 1491 1490 1490 1489 1489 1489 1488 1487 1486 1486 1486 1486 1486 1486 1486 1486 1487 1487 1487 1487 1488
1498 1498 1498 1497 1497 1496 1495 1494 1493 1493 1492 1491 1491 1490 1489 1489 1488 1487 1487 1486 1485 1485 1485 1485 1483 1483 1482 1481 1482 1481 1481 1481 1481 1482 1482 1482 1483 1483
1495 1495 1495 1494 1494 1493 1492 1491 1490 1490 1488 1487 1486 1486 1485 1485 1484 1484 1484 1483 1482 1482 1482 1481 1480 1479 1479 1478 1477 1477 1477 1476 1477 1477 1477 1477 1478 1478
1493 1492 1492 1492 1491 1490 1490 1489 1488 1487 1486 1484 1483 1483 1482 1482 1481 1481 1481 1480 1479 1478 1478 1478 1476 1476 1475 1473 1473 1472 1472 1472 1472 1472 1472 1473 1473 1473
1491 1491 1490 1489 1489 1488 1487 1486 1485 1484 1483 1482 1481 1480 1480 1479 1478 1478 1477 1476 1475 1474 1474 1473 1472 1472 1471 1470 1468 1468 1467 1467 1467 1467 1467 1467 1468 1468
1489 1488 1488 1487 1486 1485 1484 1483 1482 1481 1480 1479 1478 1478 1477 1476 1475 1474 1473 1472 1471 1470 1470 1469 1468 1468 1466 1465 1465 1464 1463 1463 1462 1462 1462 1462 1463 1463
1486 1485 1484 1483 1482 1482 1481 1480 1479 1479 1477 1477 1476 1475 1474 1473 1472 1471 1470 1469 1468 1466 1465 1465 1464 1463 1462 1461 1461 1460 1459 1458 1458 1457 1457 1457 1457 1457
1483 1482 1481 1481 1480 1479 1479 1478 1477 1476 1475 1474 1473 1472 1470 1469 1468 1468 1467 1465 1464 1462 1461 1460 1459 1458 1458 1457 1457 1456 1455 1454 1453 1453 1452 1452 1451 1452
1480 1479 1479 1478 1478 1477 1476 1475 1475 1474 1473 1471 1470 1469 1468 1466 1465 1464 1463 1462 1460 1459 1458 1457 1456 1455 1453 1452 1451 1452 1450 1449 1448 1448 1447 1447 1447 1447
1477 1477 1476 1476 1476 1475 1474 1473 1472 1472 1470 1469 1467 1466 1465 1464 1462 1461 1460 1459 1457 1456 1455 1454 1453 1451 1450 1449 1447 1446 1446 1445 1444 1443 1442 1442 1442 1443
1475 1475 1474 1473 1473 1472 1472 1471 1470 1469 1468 1467 1465 1464 1463 1461 1460 1458 1456 1456 1455 1453 1451 1450 1449 1448 1446 1445 1443 1442 1441 1441 1440 1439 1438 1438 1438 1437
1473 1472 1472 1471 1470 1470 1470 1469 1468 1467 1466 1464 1463 1461 1460 1459 1457 1456 1454 1453 1451 1450 1448 1447 1445 1444 1443 1441 1440 1438 1437 1437 1436 1435 1435 1435 1434 1433
1470 1469 1469 1469 1468 1468 1467 1466 1466 1464 1463 1462 1460 1459 1458 1456 1455 1453 1452 1450 1448 1446 1445 1443 1442 1441 1439 1438 1437 1436 1435 1434 1433 1432 1431 1431 1431 1430